Flag for Germany Weather past 2 weeks in Langen, Hesse, Germany

Now
63 °F

Passing clouds.


Feels Like: 63 °F
Forecast: 46 / 71 °F
Wind: 16 mph from West

Location: Frankfurt-M-Flughafen Airport

Current Time: May 30, 2015 at 4:57:46 PM

Latest Report: May 30, 2015 at 4:20 PM


Visibility: N/A

Pressure: 29.98 "Hg

Humidity: 32%

Dew point: 32 °F

Location of LangenLocation

Historic Weather in Langen — Graph

°F

Langen temperature yesterday

Maximum temperature yesterday: 68 °F (at 1:20 PM)
Minimum temperature yesterday: 50 °F (at 4:20 AM)
Average temperature yesterday: 58 °F

Past Weeks' High & Low Weather Summary

 TemperatureHumidityPressure
High73 °F (May 18, 3:20 PM)94% (May 25, 6:20 AM)30.33 "Hg (May 25, 6:20 AM)
Low39 °F (May 22, 4:50 AM)23% (May 18, 3:20 PM)29.68 "Hg (May 18, 7:20 PM)
Average57 °F60%30.05 "Hg
* Reported May 15 3:20 PM — May 30 3:20 PM, Langen, Weather by CustomWeather, © 2015

Note: Actual official high and low records may vary slightly from our data, if they occured in-between our weather recording intervals... More about our weather records

Advertising

Langen weather history for previous 24 hours

 ConditionsComfort  
Time TempWeatherWind HumidityBarometerVisibility
3:20 PM
Sat, May 30
63 °FPassing clouds.16 mph32%29.98 "HgN/A
2:50 PM63 °FPassing clouds.18 mph32%29.98 "HgN/A
2:20 PM63 °FSunny.18 mph34%29.98 "Hg10 mi
1:50 PM61 °FPassing clouds.15 mph36%29.98 "HgN/A
1:20 PM61 °FPassing clouds.14 mph36%29.98 "HgN/A
12:50 PM61 °FPassing clouds.16 mph36%29.98 "HgN/A
12:20 PM61 °FBroken clouds.16 mph39%29.98 "HgN/A
11:50 AM59 °FBroken clouds.15 mph45%29.98 "HgN/A
11:20 AM59 °FBroken clouds.17 mph48%29.95 "HgN/A
10:50 AM59 °FBroken clouds.14 mph48%29.95 "HgN/A
10:20 AM57 °FBroken clouds.12 mph51%29.95 "HgN/A
9:50 AM57 °FBroken clouds.13 mph55%29.95 "HgN/A
9:20 AM55 °FBroken clouds.13 mph59%29.95 "HgN/A
8:50 AM55 °FScattered clouds.13 mph63%29.92 "HgN/A
8:20 AM55 °FScattered clouds.14 mph63%29.92 "HgN/A
7:50 AM55 °FScattered clouds.12 mph67%29.92 "HgN/A
7:20 AM54 °FScattered clouds.7 mph77%29.89 "HgN/A
6:50 AM54 °FPartly sunny.9 mph72%29.89 "HgN/A
6:20 AM54 °FPartly cloudy.8 mph72%29.89 "HgN/A
5:50 AM52 °FPartly cloudy.8 mph77%29.89 "HgN/A
5:20 AM52 °FPassing clouds.7 mph77%29.89 "HgN/A
4:50 AM50 °FScattered showers. Partly cloudy.7 mph88%29.86 "HgN/A
4:20 AM50 °FScattered showers. Passing clouds.5 mph88%29.86 "HgN/A
3:50 AM52 °FSprinkles. Partly cloudy.9 mph77%29.86 "HgN/A
3:20 AM54 °FSprinkles. Partly cloudy.15 mph77%29.86 "HgN/A
2:50 AM55 °FPartly cloudy.10 mph77%29.83 "HgN/A
2:20 AM55 °FPassing clouds.13 mph77%29.83 "HgN/A
1:50 AM55 °FPassing clouds.9 mph77%29.83 "HgN/A
1:20 AM55 °FClear.7 mph77%29.83 "Hg10 mi
12:50 AM54 °FClear.7 mph82%29.83 "Hg10 mi
12:20 AM55 °FClear.10 mph77%29.83 "Hg10 mi
11:50 PM
Fri, May 29
54 °FClear.9 mph82%29.83 "Hg10 mi
11:20 PM54 °FClear.9 mph82%29.83 "Hg10 mi
10:50 PM54 °FPassing clouds.8 mph82%29.83 "HgN/A
10:20 PM54 °FPartly sunny.6 mph82%29.83 "HgN/A
9:50 PM54 °FScattered clouds.8 mph82%29.83 "HgN/A
9:20 PM55 °FPartly sunny.9 mph77%29.83 "HgN/A
8:50 PM57 °FPartly sunny.12 mph67%29.83 "HgN/A
8:20 PM59 °FPartly sunny.14 mph63%29.83 "HgN/A
7:50 PM59 °FBroken clouds.13 mph72%29.80 "HgN/A
7:20 PM59 °FBroken clouds.8 mph77%29.80 "HgN/A
6:50 PM61 °FBroken clouds.8 mph83%29.80 "HgN/A
6:20 PM61 °FScattered showers. Broken clouds.8 mph88%29.80 "HgN/A
5:50 PM61 °FScattered showers. Broken clouds.9 mph83%29.80 "HgN/A
5:20 PM59 °FBroken clouds.7 mph88%29.80 "HgN/A
4:50 PM59 °FBroken clouds.7 mph88%29.80 "HgN/A
4:20 PM57 °FRain showers. Broken clouds.9 mph88%29.83 "Hg3 mi
Weather by CustomWeather, © 2015

See weather overviewHow to use our weather pages